Wind_Speed
15 13 10 8 7 6 5 7 8 9 10 11 11 11 11 12 12 12 11 10 9 9 9 8 6 5 4 3 2 2 2 2 3 3 3 3 3 3 3 3 2 3 3
13 11 10 7 6 5 5 5 7 8 9 11 11 11 11 11 11 11 11 10 9 9 10 9 7 6 5 4 2 1 1 1 2 2 3 4 4 4 4 4 3 3 3
12 10 8 7 6 5 4 4 6 8 9 10 10 10 11 11 11 11 11 10 10 10 10 9 8 7 6 5 3 2 0 0 0 1 2 3 3 4 4 4 4 4 3
11 10 8 7 6 6 5 4 5 8 9 9 10 10 11 11 11 12 12 11 10 10 10 10 9 8 7 6 5 4 3 2 2 2 1 2 2 3 3 4 4 4 4
12 10 8 7 6 6 5 4 5 7 8 9 10 10 11 12 12 12 12 11 11 11 11 11 10 9 8 7 7 6 5 4 4 4 4 3 3 4 4 4 4 5 5
12 11 10 8 7 6 5 4 4 6 8 9 10 10 11 11 12 13 13 12 11 11 12 12 11 10 10 9 9 8 7 7 7 6 6 6 6 6 6 6 6 6 7
12 10 10 8 6 6 5 5 5 6 7 9 10 11 11 12 13 13 13 13 12 12 12 13 12 11 11 11 11 10 10 10 10 9 9 9 9 9 9 9 9 9 9
11 10 9 8 6 6 5 5 5 7 9 10 11 11 12 13 13 14 13 13 14 14 14 14 14 13 12 13 13 13 13 13 13 13 12 12 13 13 13 13 13 13 13
11 10 10 8 7 6 6 6 6 7 9 11 12 12 12 13 14 14 14 13 14 14 15 15 15 15 15 15 15 15 16 16 16 16 16 16 16 16 16 16 17 17 17
11 9 9 8 7 7 6 6 6 7 8 10 12 13 13 13 14 14 14 14 14 15 15 16 16 17 17 17 17 18 18 19 19 19 19 19 20 20 20 20 21 21 21
10 9 9 8 8 7 7 6 6 6 7 9 11 12 13 14 14 14 15 15 16 16 16 17 17 18 19 19 19 20 20 21 21 22 22 22 23 23 23 24 24 25 25
12 11 9 9 8 8 7 6 6 6 5 6 8 11 13 14 15 15 15 17 17 18 18 18 19 19 20 21 21 22 22 23 24 24 24 25 25 26 27 27 27 28 28
13 12 11 10 9 8 8 7 7 6 6 7 8 10 12 13 15 16 16 18 19 19 20 20 20 21 21 22 22 22 24 25 26 26 26 27 28 28 29 30 30 30 31
15 14 13 12 11 10 9 8 8 8 7 7 8 9 12 13 15 16 17 18 19 20 20 21 21 21 22 22 22 23 24 25 26 26 28 29 29 30 31 31 32 33 33
16 16 15 13 12 11 11 10 10 9 8 8 8 9 11 13 14 16 17 18 18 19 20 21 22 22 22 22 23 24 24 24 25 27 28 29 30 32 32 33 34 35 36
18 17 16 15 14 13 13 12 11 10 10 9 9 10 11 12 13 15 16 17 17 18 19 20 21 22 22 23 24 25 25 26 27 28 30 31 31 32 33 35 36 37 37
21 19 18 17 16 15 14 14 13 12 12 12 12 12 12 13 14 15 16 17 19 19 19 20 21 21 21 23 24 26 27 28 29 30 31 31 32 33 34 35 36 37 38
22 21 20 19 18 17 16 16 15 14 14 14 14 14 14 14 14 15 16 17 18 19 19 19 21 22 23 23 25 27 28 29 30 31 32 33 35 35 36 37 38 40 40
25 24 22 21 19 18 18 18 17 16 16 16 17 17 17 17 17 18 18 19 19 21 21 21 22 23 25 26 28 29 30 31 32 33 33 34 35 36 38 39 40 41 43
26 25 24 23 21 20 20 20 20 19 19 19 19 19 19 19 19 19 20 20 21 22 24 25 25 26 27 29 30 31 32 33 34 34 35 36 38 40 41 42 43 44 45
28 27 26 25 24 23 22 22 21 22 21 21 21 20 21 21 21 21 22 22 23 24 26 27 28 29 30 30 31 32 33 35 36 37 38 39 41 42 44 45 46 47 48
29 29 28 27 26 25 24 23 24 23 22 22 22 23 24 23 22 23 24 25 26 27 28 29 29 30 31 32 33 34 36 37 39 40 42 43 44 46 47 48 49 51 52
31 29 29 28 27 26 26 26 26 25 25 25 25 26 27 26 26 26 26 26 28 29 29 30 31 32 33 34 36 37 39 41 42 44 45 47 48 49 51 52 53 54 56
31 30 30 29 28 27 28 28 27 27 27 27 27 28 28 28 27 27 27 27 29 30 31 32 33 34 35 37 38 40 41 43 45 47 49 50 52 53 54 55 56 57 58
31 31 31 31 30 29 28 29 30 29 29 29 29 28 28 28 28 28 28 29 30 31 32 34 35 37 38 39 41 42 44 46 48 50 52 53 54 55 56 57 58 58 58
32 30 30 30 30 29 29 30 30 29 30 30 29 28 27 28 28 29 30 31 32 32 33 35 37 39 41 42 44 46 48 50 51 53 54 55 56 56 57 57 58 58 57
Wind_Direction
328 326 322 317 312 294 280 257 242 231 219 212 214 214 211 208 208 207 208 209 210 210 204 201 199 194 186 175 140 92 65 61 65 64 55 49 46 42 39 29 24 10 3
326 331 326 319 319 307 291 264 237 228 216 212 213 216 215 211 210 211 211 209 210 206 201 200 199 194 191 186 168 129 82 68 63 63 55 47 40 36 36 34 33 28 22
330 332 326 323 328 327 309 284 237 225 220 217 214 215 209 208 211 212 212 213 211 206 201 200 202 200 197 197 198 197 203 309 338 22 36 33 30 33 32 29 28 26 24
332 332 324 319 321 325 323 295 253 229 225 219 214 213 210 210 210 210 212 212 212 207 206 204 208 208 207 213 224 239 252 266 275 290 314 342 352 2 9 8 6 5 2
333 336 326 318 318 318 318 297 253 230 223 215 214 216 212 214 213 211 213 215 215 212 210 211 213 216 220 226 234 244 254 263 267 275 283 294 304 313 321 330 333 335 332
330 336 333 318 309 312 305 292 255 230 216 212 211 211 212 213 212 215 219 218 216 215 215 216 219 223 230 235 239 248 254 259 264 269 273 281 286 293 299 303 308 311 314
326 330 332 327 310 303 303 288 259 234 220 214 215 217 217 215 213 215 219 220 219 220 221 221 224 230 237 239 243 251 257 261 264 269 272 275 279 285 289 293 296 298 301
322 325 332 332 319 311 305 287 270 245 233 224 223 223 222 220 218 218 222 224 224 228 230 228 230 236 243 246 248 254 259 263 266 269 272 275 278 281 285 288 290 291 293
319 324 327 329 323 317 308 294 279 259 244 234 230 227 223 221 222 221 224 228 231 233 235 234 237 242 246 250 253 257 260 263 266 268 271 274 276 278 281 284 287 288 290
314 318 320 325 325 318 313 305 287 267 248 240 233 229 226 226 228 228 231 233 235 237 238 238 242 247 251 254 257 259 262 265 266 269 272 274 276 279 280 283 285 286 287
306 312 315 319 323 319 314 312 300 282 256 242 233 228 228 230 229 230 232 236 238 241 242 242 247 250 254 257 259 261 263 266 267 269 271 273 275 277 279 280 283 285 286
298 304 310 314 316 314 312 309 309 300 275 242 233 229 229 231 231 235 239 242 244 245 246 248 251 254 257 260 263 264 265 267 269 270 271 273 275 277 278 279 281 283 284
291 295 298 302 308 310 305 302 301 296 280 253 242 236 236 239 241 244 246 246 248 249 250 253 256 260 261 263 265 267 269 269 271 271 272 273 275 276 277 278 280 281 282
286 288 291 294 297 302 301 297 293 291 283 266 252 247 245 245 247 247 249 250 251 253 255 258 260 262 264 266 268 270 272 272 273 274 276 276 276 277 278 279 280 280 281
283 284 285 285 289 294 295 294 289 286 284 277 264 259 256 254 255 254 254 254 256 257 258 260 261 265 268 270 271 272 274 276 276 276 277 278 279 281 281 281 280 280 281
281 281 280 280 282 286 289 289 287 283 281 283 282 274 266 263 261 259 257 258 258 259 262 265 267 268 270 272 273 275 278 279 279 279 280 282 284 283 283 284 284 284 283
276 277 276 277 277 280 283 285 283 282 280 279 279 277 276 272 266 263 262 261 262 265 266 268 269 271 272 273 275 275 277 279 280 281 282 285 284 285 286 286 287 286 285
272 273 274 275 276 275 277 279 282 280 278 277 275 274 272 273 272 269 269 267 266 268 271 271 272 274 276 277 278 279 280 282 283 284 284 284 285 286 287 286 287 287 286
269 269 270 271 273 273 274 275 278 277 275 274 275 273 273 272 271 271 273 272 270 271 275 276 278 278 280 280 281 282 283 284 285 286 287 287 287 287 288 288 288 287 286
263 266 266 266 268 270 272 274 274 274 273 273 275 274 273 274 276 275 278 276 274 275 278 280 282 283 283 283 284 284 285 286 286 287 288 288 288 288 288 288 288 287 287
260 261 264 266 266 268 270 272 272 273 272 272 274 277 276 275 276 275 276 277 277 279 281 283 284 285 285 285 286 287 287 288 288 288 288 288 288 289 289 289 288 288 288
259 259 260 262 264 266 268 271 272 273 273 273 275 276 276 275 273 274 276 278 279 281 282 284 285 285 286 287 287 288 289 289 290 290 290 290 290 289 289 289 289 288 288
255 256 258 260 263 267 268 271 271 270 271 272 274 277 277 275 276 279 280 282 283 284 285 287 288 288 289 290 290 291 291 292 292 292 292 291 291 291 291 290 289 289 288
253 254 257 259 262 265 268 267 268 270 271 272 275 277 278 278 279 282 283 285 286 286 287 289 290 291 291 292 292 292 293 293 294 293 293 293 293 292 291 291 290 289 288
253 254 257 259 260 263 267 270 270 270 272 273 275 276 278 280 281 283 284 286 288 289 290 291 292 293 293 294 295 295 295 295 295 295 294 294 293 292 292 291 291 290 289
252 254 255 257 259 263 266 268 268 270 272 273 274 276 278 280 282 284 284 285 288 290 292 293 294 295 296 296 296 297 297 297 297 296 296 295 295 294 294 293 293 292 291
Height
5842 5840 5837 5836 5836 5835 5835 5836 5837 5839 5841 5844 5847 5850 5852 5855 5858 5861 5863 5864 5866 5868 5870 5872 5873 5875 5876 5877 5877 5877 5878 5878 5878 5878 5878 5878 5878 5878 5878 5878 5878 5878 5878
5842 5839 5838 5836 5836 5835 5835 5835 5836 5838 5840 5842 5845 5848 5851 5853 5856 5859 5861 5863 5865 5867 5869 5871 5873 5874 5875 5876 5877 5877 5878 5878 5878 5878 5878 5878 5879 5878 5878 5878 5878 5878 5878
5841 5839 5838 5836 5836 5835 5835 5834 5835 5837 5839 5841 5843 5846 5849 5851 5855 5857 5860 5862 5864 5866 5868 5870 5872 5873 5875 5875 5876 5877 5877 5878 5878 5878 5879 5879 5879 5878 5878 5878 5878 5878 5878
5841 5839 5838 5836 5836 5835 5834 5834 5835 5837 5838 5840 5842 5845 5847 5850 5853 5855 5858 5861 5863 5865 5867 5869 5871 5872 5873 5874 5875 5876 5877 5877 5878 5878 5878 5878 5878 5879 5878 5878 5878 5878 5878
5840 5839 5837 5836 5835 5835 5834 5834 5835 5836 5837 5839 5841 5843 5846 5849 5851 5854 5856 5859 5861 5863 5865 5867 5869 5871 5872 5873 5874 5875 5876 5876 5877 5877 5877 5878 5878 5878 5878 5878 5878 5878 5877
5840 5839 5837 5836 5835 5834 5834 5834 5834 5835 5836 5838 5840 5842 5845 5847 5850 5852 5855 5857 5859 5861 5864 5865 5867 5869 5870 5872 5873 5873 5874 5875 5875 5876 5876 5877 5877 5877 5877 5877 5877 5877 5876
5840 5838 5837 5835 5834 5834 5834 5834 5834 5834 5835 5837 5839 5841 5843 5845 5848 5850 5853 5855 5858 5860 5862 5864 5865 5867 5868 5869 5871 5872 5872 5873 5874 5874 5874 5875 5875 5875 5875 5875 5875 5875 5875
5839 5838 5836 5835 5834 5833 5833 5833 5833 5833 5834 5836 5838 5840 5842 5843 5846 5848 5851 5853 5855 5857 5859 5861 5863 5865 5866 5867 5868 5869 5870 5870 5871 5872 5872 5872 5872 5872 5872 5872 5872 5872 5872
5838 5837 5836 5835 5833 5833 5832 5832 5832 5832 5833 5834 5836 5838 5840 5842 5844 5846 5849 5851 5853 5855 5857 5859 5860 5862 5863 5864 5865 5866 5867 5867 5868 5868 5869 5869 5869 5869 5869 5869 5869 5869 5869
5837 5836 5835 5834 5833 5832 5831 5831 5830 5830 5831 5832 5834 5835 5838 5840 5842 5844 5846 5848 5850 5852 5854 5855 5857 5858 5859 5860 5861 5862 5863 5864 5864 5865 5865 5865 5865 5865 5865 5865 5864 5864 5864
5836 5836 5834 5833 5832 5832 5830 5830 5829 5829 5829 5830 5831 5833 5835 5837 5839 5841 5843 5845 5847 5849 5850 5852 5853 5854 5855 5856 5857 5858 5859 5859 5860 5860 5860 5860 5860 5860 5860 5860 5859 5859 5859
5835 5834 5833 5832 5831 5831 5830 5829 5828 5828 5828 5828 5829 5831 5833 5835 5836 5838 5840 5842 5844 5845 5847 5848 5849 5850 5851 5852 5852 5853 5854 5854 5854 5854 5855 5855 5855 5854 5854 5854 5853 5853 5852
5833 5833 5832 5831 5830 5830 5829 5828 5828 5827 5827 5827 5828 5829 5830 5832 5833 5835 5837 5838 5840 5841 5842 5843 5844 5845 5846 5846 5847 5847 5848 5848 5848 5848 5848 5848 5848 5848 5847 5847 5846 5846 5845
5830 5830 5830 5829 5829 5828 5827 5827 5827 5826 5826 5826 5826 5827 5828 5829 5830 5832 5833 5834 5835 5836 5837 5838 5839 5840 5840 5841 5841 5842 5842 5842 5842 5841 5841 5841 5841 5840 5840 5839 5839 5838 5837
5827 5827 5827 5827 5827 5826 5826 5825 5825 5824 5824 5824 5824 5824 5825 5826 5827 5828 5829 5830 5831 5832 5832 5833 5833 5834 5835 5836 5836 5836 5835 5835 5835 5835 5834 5834 5833 5832 5831 5831 5830 5829 5828
5824 5824 5824 5824 5824 5824 5823 5823 5822 5822 5822 5822 5822 5822 5823 5823 5823 5824 5825 5826 5826 5827 5828 5828 5828 5829 5830 5830 5830 5829 5829 5829 5828 5828 5827 5826 5826 5825 5823 5822 5821 5820 5819
5819 5820 5820 5820 5820 5821 5821 5820 5820 5820 5820 5820 5820 5820 5820 5819 5819 5820 5820 5821 5822 5822 5823 5823 5823 5823 5824 5824 5824 5823 5822 5822 5821 5820 5819 5818 5817 5816 5815 5813 5811 5810 5808
5815 5815 5816 5816 5816 5817 5817 5817 5817 5817 5817 5817 5816 5816 5816 5816 5816 5816 5816 5816 5816 5817 5817 5817 5818 5818 5817 5817 5817 5816 5815 5814 5813 5812 5811 5810 5808 5806 5805 5803 5802 5799 5797
5809 5810 5811 5811 5812 5812 5812 5813 5813 5813 5813 5813 5813 5813 5813 5812 5812 5812 5812 5811 5811 5811 5812 5812 5812 5811 5811 5810 5809 5808 5807 5806 5804 5803 5802 5800 5798 5796 5794 5793 5791 5788 5786
5803 5804 5805 5806 5807 5807 5807 5808 5809 5809 5809 5809 5808 5808 5808 5808 5807 5807 5807 5806 5806 5806 5806 5806 5805 5804 5804 5803 5802 5800 5799 5797 5795 5794 5792 5790 5788 5786 5783 5781 5779 5776 5774
5797 5798 5799 5800 5801 5802 5802 5802 5803 5803 5803 5803 5803 5803 5803 5802 5802 5801 5801 5801 5800 5800 5800 5799 5798 5797 5796 5795 5793 5791 5789 5788 5785 5783 5782 5779 5776 5774 5771 5768 5766 5763 5760
5790 5791 5793 5793 5794 5795 5796 5797 5797 5797 5797 5797 5797 5797 5797 5797 5796 5795 5795 5794 5794 5793 5793 5791 5790 5789 5787 5786 5784 5782 5780 5777 5775 5772 5770 5767 5765 5762 5758 5755 5752 5748 5745
5783 5785 5786 5787 5788 5789 5790 5790 5791 5791 5791 5791 5791 5791 5790 5790 5789 5789 5788 5787 5787 5786 5785 5784 5782 5781 5779 5776 5774 5772 5769 5767 5764 5761 5757 5754 5751 5748 5744 5741 5737 5733 5729
5775 5777 5779 5781 5782 5783 5784 5784 5784 5784 5785 5785 5784 5784 5783 5783 5782 5781 5780 5780 5779 5778 5776 5775 5773 5772 5769 5767 5764 5761 5758 5755 5752 5748 5744 5741 5737 5733 5728 5724 5720 5716 5711
5768 5770 5772 5774 5775 5776 5777 5777 5777 5777 5777 5777 5777 5777 5776 5775 5775 5774 5773 5772 5770 5769 5767 5765 5764 5761 5759 5756 5753 5750 5746 5742 5738 5734 5730 5726 5721 5716 5711 5707 5702 5697 5693
5761 5763 5765 5766 5768 5769 5770 5770 5770 5770 5770 5770 5770 5769 5769 5768 5767 5766 5765 5763 5762 5760 5758 5756 5753 5750 5748 5744 5740 5736 5732 5728 5723 5718 5714 5709 5704 5698 5693 5688 5683 5678 5674